Regional Weather Roundup
Issued by NWS

Home | Current Version | Previous Version | Graphics & Text | Print | Product List | Glossary On
Versions: 1 2 3 4 5 6 7 8 9 10 11 12 13 14 15 16 17 18 19 20 21 22 23 24 25 26 27 28 29 30 31 32 33 34 35 36 37 38 39 40 41 42 43 44 45 46 47 48 49 50
000
ASUS44 KMEG 260400
RWRTN
TENNESSEE HOURLY STATE WEATHER ROUNDUP
NATIONAL WEATHER SERVICE MEMPHIS TN
1000 PM CST TUE NOV 25 2014

TNZ002-004-019-021-049-052-054-088>092-260500-
WEST TENNESSEE

CITY           SKY/WX    TMP DP  RH WIND       PRES   REMARKS
MEMPHIS INTL   CLEAR     34  28  79 S3        30.20F
NWS MEMPHIS      N/A     32 N/A N/A MISG        N/A
JACKSON        CLEAR     30  25  81 CALM      30.19F
DYERSBURG      CLEAR     30  18  59 CALM      30.21F
UNION CITY     CLEAR     30  25  80 CALM      30.18F
PARIS          CLEAR     25  23  93 CALM      30.19S
LEXINGTON      CLEAR     30  27  86 CALM      30.16F
SAVANNAH       CLEAR     28  27  93 CALM      30.17F
$$

TNZ008-025-027-028-033-062-065-066-260500-
NORTH MIDDLE TENNESSEE

CITY           SKY/WX    TMP DP  RH WIND       PRES   REMARKS
NASHVILLE      MOCLDY    40  27  59 NW3       30.16F
CLARKSVILLE    PTCLDY    35  28  75 NW3       30.18S
COOKEVILLE     CLEAR     39  28  65 CALM      30.12F
CROSSVILLE     CLOUDY    43  29  57 N6        30.10F
$$

TNZ061-075-076-078-094-096-097-260500-
SOUTH MIDDLE TENNESSEE

CITY           SKY/WX    TMP DP  RH WIND       PRES   REMARKS
TULLAHOMA      CLEAR     39  27  60 N6        30.12F WCI  35
WINCHESTER     PTCLDY    43  30  61 NW6       30.11F
SHELBYVILLE    CLEAR     39  30  70 N8G20     30.15S WCI  34
$$

TNZ017-018-042-046-047-260500-
NORTHEAST TENNESSEE

CITY           SKY/WX    TMP DP  RH WIND       PRES   REMARKS
TRI CITIES     CLOUDY    41  34  76 E5        30.07F
ELIZABETHTON   CLEAR     39  30  70 CALM      30.07F
$$

TNZ012-013-036-069-073-074-260500-
CENTRAL EAST TENNESSEE

CITY           SKY/WX    TMP DP  RH WIND       PRES   REMARKS
KNOXVILLE      CLOUDY    48  29  47 N9        30.07S
OAK RIDGE      CLOUDY    48  30  49 CALM      30.09S
GATLINBURG     CLEAR     43  34  70 CALM      30.06F
$$

TNZ083-085-099-260500-
SOUTHEAST TENNESSEE

CITY           SKY/WX    TMP DP  RH WIND       PRES   REMARKS
CHATTANOOGA    CLOUDY    49  33  54 N5        30.08F
$$

SKY/WX REPORTED AS FAIR MEANS FEW OR NO CLOUDS BELOW
12 THOUSAND FEET.



USA.gov is the U.S. government's official web portal to all federal, state and local government web resources and services.